Date String (YYYY-MM-DD hh:mm:ss) UTC,Instrument flags,Ambient pressure (hPa),Sample flow (lpm),Bypass flow (lpm),Sample temperature (°C),Ambient temperature (°C),ASC tube jacket temperature (°C),LED temperature (°C),Box temperature (°C),Sample RH (%),Span deviation,Mass concentration (μg/m³),Mass concentration (μg/m³),Mass concentration (μg/m³)
DateTimeUTC,F1_M11,P_M11,Q1_M11,Q2_M11,T1_M11,T2_M11,T3_M11,T4_M11,T5_M11,U1_M11,ZSPAN_M11,X0_M11,X2_M11,X1_M11
2022-04-14 17:00:00,,0819.9,5.00,0.00,22.2,21.7,00.0,31.1,23.9,08.1,0000.0,0008.24,0004.02,0002.87
2022-04-14 17:01:00,,0819.9,5.00,0.00,22.2,21.6,00.0,31.1,23.9,08.1,0000.0,0008.27,0004.03,0002.87
2022-04-14 17:02:00,,0819.9,5.00,0.00,22.1,21.5,00.0,31.1,23.8,08.1,0000.0,0008.65,0004.07,0002.88
2022-04-14 17:03:00,,0819.9,5.00,0.00,22.1,21.5,00.0,31.1,23.8,08.1,0000.0,0009.24,0004.08,0002.90
2022-04-14 17:04:00,,0819.8,5.00,0.00,22.1,21.4,00.0,31.1,23.8,08.1,0000.0,0009.27,0004.06,0002.91
2022-04-14 17:05:00,,0819.8,5.00,0.00,22.1,21.4,00.0,31.1,23.8,07.8,0000.0,0009.56,0004.07,0002.95
2022-04-14 17:06:00,,0819.8,5.02,0.00,22.1,21.3,00.0,31.1,23.8,07.6,0000.0,0009.84,0004.13,0002.98
2022-04-14 17:07:00,,0819.7,4.99,0.00,22.1,21.3,00.0,31.1,23.7,07.7,0000.0,0009.96,0004.13,0003.00
2022-04-14 17:08:00,,0819.7,4.99,0.00,22.1,21.2,00.0,31.1,23.8,07.6,0000.0,0010.04,0004.15,0003.00
2022-04-14 17:09:00,,0819.7,5.00,0.00,22.1,21.2,00.0,31.1,23.7,07.7,0000.0,0010.03,0004.16,0003.02
2022-04-14 17:10:00,,0819.7,5.01,0.00,22.1,21.2,00.0,31.1,23.8,07.8,0000.0,0010.12,0004.18,0003.03
2022-04-14 17:11:00,,0819.8,4.99,0.00,22.1,21.1,00.0,31.0,23.7,07.5,0000.0,0010.35,0004.19,0003.02
2022-04-14 17:12:00,,0819.7,5.00,0.00,22.0,21.1,00.0,31.0,23.7,07.7,0000.0,0010.42,0004.23,0003.05
2022-04-14 17:13:00,,0819.7,5.00,0.00,22.0,21.1,00.0,31.0,23.8,07.7,0000.0,0010.34,0004.24,0003.08
2022-04-14 17:14:00,,0819.7,5.01,0.00,22.0,21.1,00.0,31.0,23.8,07.8,0000.0,0009.99,0004.26,0003.10
2022-04-14 17:15:00,,0819.7,5.01,0.00,22.0,21.1,00.0,31.0,23.7,07.8,0000.0,0010.38,0004.32,0003.12
2022-04-14 17:16:00,,0819.6,5.00,0.00,22.0,21.1,00.0,31.0,23.7,07.8,0000.0,0010.11,0004.36,0003.13
2022-04-14 17:17:00,,0819.9,5.00,0.00,22.0,21.1,00.0,31.0,23.7,07.6,0000.0,0009.84,0004.32,0003.13
2022-04-14 17:18:00,,0819.9,5.00,0.00,22.0,21.0,00.0,31.0,23.6,07.7,0000.0,0009.72,0004.33,0003.13
2022-04-14 17:19:00,,0819.9,5.00,0.00,22.0,21.0,00.0,31.0,23.5,08.0,0000.0,0009.67,0004.32,0003.13
2022-04-14 17:20:00,,0819.9,5.01,0.00,22.0,21.1,00.0,31.0,23.6,08.0,0000.0,0009.91,0004.35,0003.14
2022-04-14 17:21:00,,0819.8,5.00,0.00,22.0,21.1,00.0,31.0,23.6,07.9,0000.0,0010.03,0004.38,0003.15
2022-04-14 17:22:00,,0819.7,5.01,0.00,22.0,21.1,00.0,31.0,23.7,08.0,0000.0,0009.90,0004.39,0003.16
2022-04-14 17:23:00,,0819.8,5.01,0.00,22.0,21.0,00.0,31.0,23.7,07.6,0000.0,0009.89,0004.37,0003.15
2022-04-14 17:24:00,,0819.7,5.00,0.00,22.0,21.0,00.0,31.0,23.6,07.7,0000.0,0010.59,0004.37,0003.14
2022-04-14 17:25:00,,0819.8,5.00,0.00,21.9,21.0,00.0,31.0,23.6,07.6,0000.0,0010.84,0004.36,0003.14
2022-04-14 17:26:00,,0819.8,5.00,0.00,21.9,21.0,00.0,30.9,23.5,07.8,0000.0,0010.36,0004.37,0003.14
2022-04-14 17:27:00,,0819.8,5.00,0.00,21.9,21.0,00.0,30.9,23.5,08.0,0000.0,0010.44,0004.37,0003.13
2022-04-14 17:28:00,,0819.8,4.99,0.00,21.9,21.0,00.0,30.9,23.5,07.8,0000.0,0011.29,0004.46,0003.12
2022-04-14 17:29:00,,0819.7,5.01,0.00,21.9,21.0,00.0,30.9,23.5,07.9,0000.0,0011.42,0004.46,0003.14
2022-04-14 17:30:00,,0819.8,5.00,0.00,21.9,21.0,00.0,30.9,23.6,08.0,0000.0,0011.44,0004.46,0003.14
2022-04-14 17:31:00,,0819.7,4.99,0.00,21.9,21.0,00.0,30.9,23.6,07.8,0000.0,0011.48,0004.46,0003.13
2022-04-14 17:32:00,,0819.6,4.99,0.00,21.9,21.0,00.0,30.9,23.7,07.6,0000.0,0011.75,0004.44,0003.12
2022-04-14 17:33:00,,0819.5,5.00,0.00,21.9,21.0,00.0,30.9,23.6,07.7,0000.0,0011.61,0004.42,0003.12
2022-04-14 17:34:00,,0819.5,4.99,0.00,21.9,21.0,00.0,30.9,23.6,07.7,0000.0,0011.69,0004.44,0003.13
2022-04-14 17:35:00,,0819.6,5.02,0.00,21.9,21.0,00.0,30.9,23.6,07.5,0000.0,0011.24,0004.46,0003.14
2022-04-14 17:36:00,,0819.6,5.00,0.00,21.9,21.0,00.0,30.9,23.6,07.7,0000.0,0010.62,0004.43,0003.13
2022-04-14 17:37:00,,0819.8,5.00,0.00,21.9,21.0,00.0,30.9,23.6,07.7,0000.0,0010.66,0004.39,0003.13
2022-04-14 17:38:00,,0819.7,4.99,0.00,21.9,21.0,00.0,30.9,23.6,07.7,0000.0,0010.81,0004.38,0003.13
2022-04-14 17:39:00,,0819.7,5.00,0.00,22.0,21.5,00.0,30.9,23.7,07.8,0000.0,0010.05,0004.29,0003.12
2022-04-14 17:40:00,,0819.7,5.00,0.00,22.1,22.8,00.0,31.0,24.1,07.8,0000.0,0009.89,0004.29,0003.10
2022-04-14 17:41:00,,0819.6,5.01,0.00,22.3,23.6,00.0,31.1,24.4,07.6,0000.0,0009.87,0004.31,0003.11
2022-04-14 17:42:00,,0819.6,5.00,0.00,22.4,23.3,00.0,31.1,24.4,07.4,0000.0,0009.55,0004.27,0003.12
2022-04-14 17:43:00,,0819.5,4.98,0.00,22.4,23.0,00.0,31.1,24.3,07.5,0000.0,0009.20,0004.28,0003.13
2022-04-14 17:44:00,,0819.6,5.01,0.00,22.4,22.7,00.0,31.1,24.3,07.4,0000.0,0009.28,0004.29,0003.12
2022-04-14 17:45:00,,0819.7,4.99,0.00,22.4,22.4,00.0,31.2,24.2,07.5,0000.0,0009.56,0004.23,0003.10
2022-04-14 17:46:00,,0819.5,5.01,0.00,22.4,22.2,00.0,31.2,24.2,07.5,0000.0,0009.59,0004.23,0003.09
2022-04-14 17:47:00,,0819.5,5.01,0.00,22.4,22.0,00.0,31.2,24.2,07.2,0000.0,0009.64,0004.25,0003.09
2022-04-14 17:48:00,,0819.6,5.00,0.00,22.4,21.9,00.0,31.2,24.1,07.2,0000.0,0009.48,0004.23,0003.11
2022-04-14 17:49:00,,0819.5,5.00,0.00,22.4,21.8,00.0,31.2,24.1,07.3,0000.0,0010.12,0004.25,0003.12
2022-04-14 17:50:00,,0819.7,5.00,0.00,22.4,21.7,00.0,31.2,24.1,07.3,0000.0,0010.54,0004.27,0003.13
2022-04-14 17:51:00,,0819.6,5.00,0.00,22.3,21.6,00.0,31.3,24.1,07.4,0000.0,0010.67,0004.23,0003.13
2022-04-14 17:52:00,,0819.5,5.00,0.00,22.3,21.5,00.0,31.3,24.0,07.3,0000.0,0010.77,0004.24,0003.13
2022-04-14 17:53:00,,0819.4,5.00,0.00,22.3,21.5,00.0,31.2,24.0,07.3,0000.0,0010.90,0004.30,0003.14
2022-04-14 17:54:00,,0819.5,5.00,0.00,22.3,21.5,00.0,31.2,24.0,07.2,0000.0,0011.57,0004.32,0003.16
2022-04-14 17:55:00,,0819.5,5.01,0.00,22.3,21.4,00.0,31.2,24.0,07.3,0000.0,0011.79,0004.30,0003.17
2022-04-14 17:56:00,,0819.5,5.00,0.00,22.3,21.4,00.0,31.2,24.0,07.3,0000.0,0011.40,0004.34,0003.18
2022-04-14 17:57:00,,0819.3,5.00,0.00,22.3,21.4,00.0,31.2,24.0,07.4,0000.0,0011.42,0004.36,0003.19
2022-04-14 17:58:00,,0819.3,5.00,0.00,22.3,21.3,00.0,31.2,24.0,07.3,0000.0,0012.21,0004.39,0003.21
2022-04-14 17:59:00,,0819.5,4.99,0.00,22.3,21.3,00.0,31.2,24.0,07.2,0000.0,0012.17,0004.40,0003.21
